Terminal Aerodrome Forecast
Issued by NWS Wakefield, VA

Home | Current Version | Previous Version | Text Only | Print | Product List | Glossary On
Versions: 1 2 3 4 5 6 7 8 9 10 11 12 13 14 15
000
FTUS41 KAKQ 240358 AAB
TAFORF
TAF AMD
KORF 240358Z 2404/2424 18016G25KT P6SM VCSH SCT025 BKN040 OVC080
     FM240500 18016G25KT 6SM -SHRA OVC040 WS020/17045KT
     FM240900 19015G25KT 4SM SHRA OVC030
     FM241400 19015G23KT P6SM -SHRA BKN035
     FM241600 19015G24KT P6SM BKN040
     FM242100 20012KT P6SM SCT080=

USA.gov is the U.S. government's official web portal to all federal, state and local government web resources and services.